sat.trackr.live / text

‹ back to catalog

GRUS-1E

NORAD 47935 · 2021-022D

PAYLOAD ACTIVE UNKNOWN

§ Identity

Operator
Country
JPN
Launch date
2021-03-22
Launch site
TYMSC
Launch vehicle
Mass (kg)
RCS (m²)

External: N2YO · Heavens-Above · Gunter

§ Orbital elements

Epoch: 2026-09-20T22:22:05.912832Z

Period
96.06 min
Inclination
97.5232°
Eccentricity
0.0010244
Mean motion
14.99056833 rev/d
Perigee alt
562.7 km
Apogee alt
576.9 km
Semi-major
6,947.9 km
B*
4.3295e-5
RAAN
145.1395°
Arg perigee
2.0082°
Mean anomaly
358.1180°
Rev number
30,029

§ Raw data

GRUS-1E1 47935U 21022D   26263.93201288  .00000469  00000+0  43295-4 0  99922 47935  97.5232 145.1395 0010244   2.0082 358.1180 14.99056833300297

JSON: /api/v1/satellites/47935 · /tle

For live sub-satellite position, see the globe view (requires WebGL).

§ Visibility from observer

Set your observer location to see the next 7 days of passes ≥ 10°. The values pass through the URL so the page stays shareable.

No JS? Fill the form by hand. The geolocation button needs JavaScript.

§ Radio — SatNOGS DB

ModeDescriptionDownlinkUplink
FM S-band telemetry 2.276 GHz

1 transmitter · refreshed weekly from db.satnogs.org